This is the latest recevied weather packets stored in our database for station/object KC9DRE. If no packets are shown the sender has not sent any weather packets the latest 10 day(s).
| Time | Temp. | Humidity | Pressure | Rain* | Wind** | Luminosity | Snow |
|---|---|---|---|---|---|---|---|
| 1787702649 | 22.22° C | 78% | 1018.1 hPa | 0 mm | - | 15 W/m² | - |
| 1787702344 | 22.78° C | 76% | 1018 hPa | 0 mm | - | 17 W/m² | - |
| 1787702044 | 23.33° C | 75% | 1018.2 hPa | 0 mm | - | 20 W/m² | - |
| 1787701742 | 23.89° C | 72% | 1018 hPa | 0 mm | - | 25 W/m² | - |
| 1787701437 | 24.44° C | 73% | 1017.8 hPa | 0 mm | - | 29 W/m² | - |
| 1787701137 | 24.44° C | 71% | 1017.7 hPa | 0 mm | - | 36 W/m² | - |
| 1787700833 | 25° C | 69% | 1017.8 hPa | 0 mm | - | 38 W/m² | - |
| 1787700529 | 25.56° C | 66% | 1018 hPa | 0 mm | - | 40 W/m² | - |
| 1787700224 | 25.56° C | 61% | 1018.1 hPa | 0 mm | - | 49 W/m² | - |
| 1787699921 | 25.56° C | 59% | 1018.2 hPa | 0 mm | - | 56 W/m² | - |
| 1787699616 | 25.56° C | 58% | 1017.9 hPa | 0 mm | - | 62 W/m² | - |
| 1787699311 | 26.11° C | 57% | 1018.1 hPa | 0 mm | - | 74 W/m² | - |
| 1787699007 | 26.11° C | 57% | 1017.8 hPa | 0 mm | - | 90 W/m² | - |
| 1787698707 | 26.11° C | 55% | 1017.9 hPa | 0 mm | - | 91 W/m² | - |
| 1787698403 | 26.67° C | 58% | 1017.9 hPa | 0 mm | - | 93 W/m² | - |
| 1787698100 | 26.67° C | 54% | 1018.1 hPa | 0 mm | - | 157 W/m² | - |
| 1787697800 | 26.67° C | 52% | 1017.9 hPa | 0 mm | - | 140 W/m² | - |
| 1787697495 | 26.67° C | 53% | 1018.1 hPa | 0 mm | - | 95 W/m² | - |
| 1787697191 | 27.78° C | 51% | 1017.9 hPa | 0 mm | - | 109 W/m² | - |
| 1787696886 | 27.22° C | 52% | 1018 hPa | 0 mm | - | 176 W/m² | - |
| 1787696582 | 27.22° C | 49% | 1018.1 hPa | 0 mm | - | 187 W/m² | - |
| 1787696277 | 27.22° C | 50% | 1018.1 hPa | 0 mm | - | 215 W/m² | - |
| 1787695976 | 27.22° C | 50% | 1018.2 hPa | 0 mm | - | 232 W/m² | - |
| 1787695671 | 27.78° C | 49% | 1017.9 hPa | 0 mm | - | 251 W/m² | - |
| 1787695368 | 27.78° C | 50% | 1018.1 hPa | 0 mm | - | 270 W/m² | - |
* Rain latest hour (hover to see other rain measurements)
** Current wind speed in m/s (hover to see current wind gust speed)